Location: Buttermere
(51.3333°N, 1.5167°W)
Time: 00:47:16
(UTC+00:00)

Okean 1-7 Rocket - Visible Passes

Search period start: 24 January 2021 00:00
Search period end: 03 February 2021 00:00
Orbit: 617 x 648 km, 82.5° (Epoch: 23 January)

Date Brightness Start Highest point End Pass type
(mag) Time Alt. Az. Time Alt. Az. Time Alt. Az.
24 Jan 5.4 04:54:27 23° SSE 04:54:27 23° SSE 04:56:11 10° SSE visible
24 Jan 4.2 17:26:08 10° SSE 17:30:19 37° E 17:34:32 10° NNE visible
24 Jan 5.5 19:04:32 10° SW 19:08:33 30° WNW 19:12:36 10° N visible
25 Jan 6.0 05:17:24 12° S 05:17:24 12° S 05:17:45 10° S visible
25 Jan 3.6 17:47:20 10° S 17:51:51 69° E 17:56:25 10° NNE visible
25 Jan 6.4 19:27:25 10° WSW 19:30:32 18° WNW 19:33:40 10° NNW visible
26 Jan 4.1 18:08:59 10° SSW 18:13:31 65° WNW 18:18:06 10° N visible
26 Jan 6.8 19:51:44 10° WNW 19:52:40 11° NW 19:53:35 10° NW visible
27 Jan 5.2 18:31:06 10° SW 18:35:19 36° WNW 18:39:34 10° N visible
28 Jan 6.1 18:53:45 10° WSW 18:57:15 21° WNW 19:00:46 10° NNW visible
29 Jan 3.8 17:35:47 10° SSW 17:40:21 81° W 17:44:58 10° N visible
29 Jan 6.6 19:17:17 10° W 19:19:19 13° WNW 19:21:24 10° NNW visible
30 Jan 4.9 17:57:44 10° SSW 18:02:07 44° WNW 18:06:31 10° N visible
31 Jan 5.9 18:20:11 10° SW 18:24:00 25° WNW 18:27:50 10° N visible
01 Feb 6.5 18:43:19 10° W 18:46:01 15° WNW 18:48:44 10° NNW visible
02 Feb 4.5 17:24:26 10° SSW 17:28:55 54° WNW 17:33:25 10° N visible
